Regional Weather Roundup
Issued by NWS New Orleans/Baton Rouge, LA

Home | Current Version | Previous Version | Text Only | Print | Product List | Glossary On
Versions: 1 2 3 4 5 6 7 8 9 10 11 12 13 14 15 16 17 18 19 20 21 22 23 24 25 26 27 28 29 30 31 32 33 34 35 36 37 38 39 40 41 42 43 44 45 46 47 48 49 50
695
ASUS44 KLIX 280305
RWRLIX
NEW ORLEANS REGIONAL WEATHER ROUNDUP
NATIONAL WEATHER SERVICE NEW ORLEANS LA
1000 PM CDT SUN JUL 27 2014

NOTE: "FAIR" INDICATES FEW OR NO CLOUDS BELOW 12,000 FEET WITH NO
      SIGNIFICANT WEATHER AND/OR OBSTRUCTIONS TO VISIBILITY.
      SKY/WX - SKY CONDITION AND SIGNIFICANT WEATHER.
      TMP - AIR TEMPERATURE.     DP    - DEWPOINT TEMPERATURE.
      RH  - RELATIVE HUMIDITY.   PRES  - PRESSURE.
      HI  - HEAT INDEX.          WCI   - WIND CHILL INDEX.

*  THESE STATIONS ARE NOT NWS OR FAA STATIONS AND ARE NOT UNDER
   NWS QUALITY CONTROL.

LAZ038-040-048-061>063-065>067-069-280400-
SOUTHEAST LOUISIANA

CITY           SKY/WX    TMP DP  RH WIND       PRES   REMARKS
N.O. AUDUBON     N/A     84  75  74 MISG        N/A
N.O. INTL ARPT PTCLDY    82  75  79 W10       30.06R
N.O. LAKEFRONT MOCLDY    85  76  74 W15       30.06R
N.O. DOWNTOWN*   N/A     84  72  65 SW7       30.06R
SLIDELL        PTCLDY    85  75  72 CALM      30.04R
BATON ROUGE    MOCLDY    84  76  76 SW12      30.05R
BOOTHVILLE     PTCLDY    84  77  79 W13       30.07R
BELLE CHASSE   CLEAR     82  74  76 SW3       30.06R
BOGALUSA*        N/A     82  77  84 CALM      30.05R
GALLIANO*      NOT AVBL
NEW ROADS*       N/A     82  77  83 SW5       30.04R
GONZALES*        N/A     82  80  92 SW3       30.05R
HAMMOND*       PTCLDY    84  73  70 W5        30.07R
HOUMA*         PTCLDY    82  74  78 CALM      30.07R
PORT FOURCHON* CLEAR     86  75  70 SW8       30.09R HX  95

$$

MSZ070-080>082-280400-
SOUTHERN MISSISSIPPI

CITY           SKY/WX    TMP DP  RH WIND       PRES   REMARKS
MCCOMB         PTCLDY    80  75  84 CALM      30.05R
GULFPORT       CLEAR     87  76  69 SW3       30.04R HX  97
BILOXI         CLEAR     85  78  79 SW9       30.04R HX  97
PASCAGOULA     CLEAR     83  78  85 SW3       30.04R

$$

COASTAL OBSERVATIONS
LAKE AND NEARSHORE STATIONS

STATION/POSITION TIME  TEMP    WIND        PRES    WAVE
                       AIR SEA DIR/SP/G            HT/PER
                 (UTC) (F)     (DEG/KT/KT) (MB)    (FT/S)
PASCAGOULA       0300   86     230/ 13/ 16 1016.7
WAVELAND YACHT   0300   85     250/  5/  7 1016.7
GRAND ISLE       0300   85 88  240/  6/ 10 1018.8
SOUTHWEST PASS   0300   85 85  250/ 15/ 18 1018.6
NEW CANAL        0300   85 86  240/  8/ 13 1017.9
SHELL BEACH      0300   84 83  250/  8/ 10 1017.4

OFFSHORE STATIONS

STATION/POSITION TIME  TEMP    WIND        PRES    WAVE
                       AIR SEA DIR/SP/G            HT/PER
                 (UTC) (F)     (DEG/KT/KT) (MB)    (FT/S)
64 S DAUPHIN ISL 0243   86 86  250/ 16/ 17 1018.2

$$




USA.gov is the U.S. government's official web portal to all federal, state and local government web resources and services.